{"data":{"norad_id":54775,"intl_designator":"2022-175T","name":"STARLINK-5465","alt_names":[],"object_type":"PAYLOAD","status":"ACTIVE","operator":null,"country":"US","launch_date":"2022-12-17","launch_site_code":"AFETR","launch_vehicle":null,"mission":null,"orbit_class":"UNKNOWN","rcs_meters":null,"size_class":null,"mass_kg":null,"dimensions":null,"purposes":["comms"],"wikipedia_slug":null,"has_3d_model":false,"image_url":null,"decayed_at":null,"tle_current":{"epoch":"2026-09-20T15:46:56.569152Z","epoch_age_seconds":75704,"freshness":"FRESH","line1":"1 54775U 22175T   26263.65759918 -.00002088  00000+0 -50674-4 0  9999","line2":"2 54775  53.1585 236.9142 0001750  90.6632 269.4571 15.34395713209515","mean_motion":15.34395713,"eccentricity":0.000175,"inclination_deg":53.1585,"raan_deg":236.9142,"arg_perigee_deg":90.6632,"mean_anomaly_deg":269.4571,"bstar":-5.0674e-5,"rev_number":20951,"period_min":93.848020285755,"perigee_km":461.51883283235,"apogee_km":463.91313137609,"semimajor_km":6840.8529821042,"source":"CELESTRAK","updated_at":"2026-09-21T09:00:33.123347Z"}}}